Content
SEND FEEDBACK

Daily
Averages
Monthly
Summary
United Kingdom

EYNESBURY, ENGLAND


Home > Europe > United Kingdom > England
Elevation: 330 feet     Latitude: 52 18N     Longitude: 000 32W

WEATHER
 
SELECT A DAY
Number of Records: 71,992;   Date Range: 7/1/96 - 7/9/14
 
SHARE

PRINT THIS DATA

[ ← Previous Day ]
WEATHER ALMANAC - OCTOBER 18, 2013
[ Next Day → ]
[ °C ]   °F
Weather ElementAverageHighLow
Temperature57.4 °F60.8 °F (3:20 pm)53.6 °F (8:50 am)
Dewpoint55.8 °F57.2 °F (11:50 am)53.6 °F (8:50 am)
Humidity94.6 %100 % (8:50 am)88 % (1:20 pm)
Barometer29.93 in29.98 in (8:50 am)29.86 in (4:50 pm)
Wind Speed8.8 mph12.7 mph (1:20 pm)
Weather ElementAverage
Visibility4.5 mi
Wind DirectionSE (134.7 °)

Weather ElementTotal
Precipitation---
Heating Degree Days7.8 (Base 65)
Growing Degree Days7.2 (Base 50)
Averaged from 19 records on October 18, 2013
WEATHER CONDITIONS BREAKOUT
WIND DIRECTION BREAKOUT
WEATHER BY HOUR - OCTOBER 18, 2013
[ °C ]   °F
Local TimeTemperatureDewpointHumidityBarometerVisibilityWind DirectionWind SpeedGust SpeedPrecipitationEventsConditions
8:50 AM53.6 °F53.6 °F100 %29.98 in0.5 miSSE (150°)5.8 mphFogFog
9:20 AM53.6 °F53.6 °F100 %29.98 in0.5 miSouth (170°)4.6 mphFogFog
9:50 AM53.6 °F53.6 °F100 %29.98 in2.8 miSE (140°)6.9 mphOvercast
10:20 AM55.4 °F55.4 °F100 %29.98 in2.8 miSE (140°)5.8 mphMostly Cloudy
10:50 AM55.4 °F55.4 °F100 %29.98 in2.8 miSE (140°)5.8 mphMostly Cloudy
11:20 AM55.4 °F55.4 °F100 %29.98 in5.0 miESE (120°)6.9 mphMostly Cloudy
11:50 AM57.2 °F57.2 °F100 %29.95 in4.3 miSE (130°)9.2 mphPartly Cloudy
12:20 PM57.2 °F57.2 °F100 %29.98 in4.3 miSE (140°)8.1 mphScattered Clouds
12:50 PM59.0 °F57.2 °F94 %29.95 in4.3 miSE (140°)9.2 mphScattered Clouds
1:20 PM59.0 °F55.4 °F88 %29.95 in5.0 miSSE (160°)12.7 mphPartly Cloudy
1:50 PM59.0 °F57.2 °F94 %29.92 in6.2 miESE (120°)8.1 mphPartly Cloudy
2:20 PM59.0 °F55.4 °F88 %29.92 in6.2 miSE (130°)10.4 mphScattered Clouds
2:50 PM59.0 °F55.4 °F88 %29.92 in6.2 miSE (140°)10.4 mphPartly Cloudy
3:20 PM60.8 °F57.2 °F88 %29.92 in5.6 miSE (140°)10.4 mphPartly Cloudy
3:50 PM59.0 °F57.2 °F94 %29.89 in6.2 miSE (130°)9.2 mphPartly Cloudy
4:20 PM59.0 °F55.4 °F88 %29.89 in5.0 miSE (130°)10.4 mphPartly Cloudy
4:50 PM59.0 °F57.2 °F94 %29.86 in6.2 miESE (110°)10.4 mphPartly Cloudy
5:20 PM59.0 °F55.4 °F88 %29.86 in6.2 miESE (110°)10.4 mphPartly Cloudy
5:50 PM57.2 °F55.4 °F94 %29.86 in6.2 miESE (120°)12.7 mphPartly Cloudy
Hourly data recorded from EGTC, located miles away from Eynesbury, England







STORIES FROM OUR PARTNERS